When you browse on this site, cookies collect data to enhance your experience and personalize the content and advertising you see.
Visit our Privacy Policy to learn more. By continuing to use the site, you agree to this use of cookies and data.
  • Em Portugal
  • Lista de países
  • Para 7 dias
  • Temperatura da água
  • Mapa do tempo
  • Widgets de tempo
  • user-avatar
    Iniciar Sessão

    Previsão horária em Sidnei

    Hoje, 18 Novembro, Segunda-feira

    Tempo Temperatura Precipitação Vento Pressão Humidade
    00:00 +17°C° 0.1 mm 2 m/s 764 mmHg 80%
    01:00 +17°C° 0.1 mm 2 m/s 763 mmHg 80%
    02:00 +16°C° 0 mm 2 m/s 763 mmHg 82%
    03:00 +16°C° 0 mm 2 m/s 763 mmHg 83%
    04:00 +15°C° 0 mm 2 m/s 763 mmHg 84%
    05:00 +16°C° 0 mm 2 m/s 763 mmHg 82%
    06:00 +17°C° 0 mm 2 m/s 763 mmHg 80%
    07:00 +18°C° 0 mm 3 m/s 763 mmHg 77%
    08:00 +20°C° 0 mm 3 m/s 763 mmHg 65%
    09:00 +23°C° 0 mm 4 m/s 763 mmHg 53%
    10:00 +26°C° 0 mm 4 m/s 762 mmHg 40%
    11:00 +28°C° 0 mm 5 m/s 761 mmHg 35%
    12:00 +30°C° 0 mm 6 m/s 760 mmHg 29%
    13:00 +32°C° 0 mm 6 m/s 760 mmHg 23%
    14:00 +30°C° 0 mm 7 m/s 759 mmHg 31%
    15:00 +28°C° 0 mm 7 m/s 758 mmHg 38%
    16:00 +27°C° 0 mm 8 m/s 757 mmHg 46%
    17:00 +24°C° 0 mm 7 m/s 758 mmHg 54%
    18:00 +22°C° 0 mm 6 m/s 758 mmHg 61%
    19:00 +21°C° 0 mm 6 m/s 758 mmHg 69%
    20:00 +20°C° 0 mm 4 m/s 758 mmHg 72%
    21:00 +19°C° 0 mm 3 m/s 759 mmHg 75%
    22:00 +19°C° 0 mm 2 m/s 759 mmHg 78%
    23:00 +18°C° 0 mm 2 m/s 759 mmHg 75%

    Amanhã, 19 Novembro, Terça-feira

    Tempo Temperatura Precipitação Vento Pressão Humidade
    00:00 +18°C° 0 mm 2 m/s 758 mmHg 71%
    01:00 +18°C° 0 mm 2 m/s 758 mmHg 68%
    02:00 +17°C° 0 mm 2 m/s 758 mmHg 61%
    03:00 +17°C° 0 mm 3 m/s 758 mmHg 54%
    04:00 +16°C° 0 mm 3 m/s 758 mmHg 47%
    05:00 +18°C° 0 mm 3 m/s 758 mmHg 42%
    06:00 +20°C° 0 mm 2 m/s 758 mmHg 37%
    07:00 +23°C° 0 mm 2 m/s 758 mmHg 32%
    08:00 +27°C° 0 mm 2 m/s 758 mmHg 26%
    09:00 +30°C° 0 mm 2 m/s 758 mmHg 21%
    10:00 +35°C° 0 mm 2 m/s 757 mmHg 15%
    11:00 +37°C° 0 mm 3 m/s 757 mmHg 14%
    12:00 +38°C° 0 mm 4 m/s 756 mmHg 12%
    13:00 +41°C° 0 mm 5 m/s 755 mmHg 10%
    14:00 +40°C° 0 mm 5 m/s 755 mmHg 10%
    15:00 +40°C° 0 mm 5 m/s 755 mmHg 11%
    16:00 +40°C° 0 mm 5 m/s 754 mmHg 11%
    17:00 +34°C° 0 mm 6 m/s 755 mmHg 26%
    18:00 +29°C° 0 mm 6 m/s 756 mmHg 41%
    19:00 +23°C° 0 mm 7 m/s 757 mmHg 56%
    20:00 +22°C° 0 mm 8 m/s 758 mmHg 62%
    21:00 +21°C° 0 mm 8 m/s 759 mmHg 68%
    22:00 +20°C° 0 mm 8 m/s 760 mmHg 74%
    23:00 +18°C° 0 mm 7 m/s 760 mmHg 75%

    Depois de amanhã, 20 Novembro, Quarta-feira

    Tempo Temperatura Precipitação Vento Pressão Humidade
    00:00 +19°C° 0 mm 6 m/s 760 mmHg 75%
    01:00 +19°C° 0 mm 6 m/s 760 mmHg 75%
    02:00 +17°C° 0 mm 5 m/s 760 mmHg 75%
    03:00 +17°C° 0 mm 5 m/s 760 mmHg 75%
    04:00 +18°C° 0 mm 4 m/s 760 mmHg 75%
    05:00 +18°C° 0 mm 4 m/s 761 mmHg 73%
    06:00 +19°C° 0 mm 4 m/s 761 mmHg 71%
    07:00 +19°C° 0 mm 3 m/s 762 mmHg 69%
    08:00 +20°C° 0 mm 3 m/s 762 mmHg 66%
    09:00 +21°C° 0 mm 2 m/s 762 mmHg 63%
    10:00 +21°C° 0 mm 2 m/s 762 mmHg 59%
    11:00 +24°C° 0 mm 2 m/s 761 mmHg 55%
    12:00 +25°C° 0 mm 3 m/s 761 mmHg 51%
    13:00 +27°C° 0 mm 3 m/s 760 mmHg 46%
    14:00 +26°C° 0 mm 4 m/s 760 mmHg 49%
    15:00 +26°C° 0 mm 4 m/s 760 mmHg 52%
    16:00 +25°C° 0 mm 4 m/s 760 mmHg 55%
    17:00 +22°C° 0 mm 4 m/s 760 mmHg 63%
    18:00 +21°C° 0 mm 4 m/s 761 mmHg 71%
    19:00 +20°C° 0 mm 3 m/s 762 mmHg 79%
    20:00 +19°C° 0 mm 3 m/s 762 mmHg 82%
    21:00 +19°C° 0 mm 2 m/s 762 mmHg 85%
    22:00 +19°C° 0 mm 1 m/s 762 mmHg 89%
    23:00 +20°C° 0 mm 1 m/s 762 mmHg 87%

    21 Novembro, Quinta-feira

    Tempo Temperatura Precipitação Vento Pressão Humidade
    00:00 +20°C° 0 mm 1 m/s 761 mmHg 86%
    01:00 +19°C° 0 mm 2 m/s 761 mmHg 85%
    02:00 +19°C° 0 mm 2 m/s 761 mmHg 86%
    03:00 +19°C° 0 mm 2 m/s 761 mmHg 87%
    04:00 +18°C° 0 mm 2 m/s 760 mmHg 88%
    05:00 +19°C° 0 mm 2 m/s 760 mmHg 82%
    06:00 +21°C° 0 mm 2 m/s 760 mmHg 76%
    07:00 +23°C° 0 mm 2 m/s 760 mmHg 70%
    08:00 +26°C° 0 mm 3 m/s 760 mmHg 59%
    09:00 +29°C° 0 mm 4 m/s 759 mmHg 48%
    10:00 +32°C° 0 mm 4 m/s 759 mmHg 37%
    11:00 +33°C° 0 mm 5 m/s 758 mmHg 36%
    12:00 +34°C° 0 mm 6 m/s 758 mmHg 35%
    13:00 +35°C° 0 mm 6 m/s 757 mmHg 34%
    14:00 +34°C° 0 mm 7 m/s 757 mmHg 39%
    15:00 +33°C° 0 mm 7 m/s 756 mmHg 44%
    16:00 +31°C° 0 mm 8 m/s 755 mmHg 49%
    17:00 +29°C° 0 mm 7 m/s 756 mmHg 55%
    18:00 +27°C° 0 mm 7 m/s 756 mmHg 61%
    19:00 +26°C° 0 mm 6 m/s 756 mmHg 67%
    20:00 +25°C° 0 mm 5 m/s 756 mmHg 69%
    21:00 +25°C° 0 mm 4 m/s 757 mmHg 71%
    22:00 +24°C° 0 mm 3 m/s 757 mmHg 73%
    23:00 +24°C° 0 mm 3 m/s 757 mmHg 74%

    22 Novembro, Sexta-feira

    Tempo Temperatura Precipitação Vento Pressão Humidade
    00:00 +22°C° 0 mm 4 m/s 757 mmHg 75%
    01:00 +22°C° 0 mm 4 m/s 757 mmHg 75%
    02:00 +22°C° 0 mm 5 m/s 757 mmHg 77%
    03:00 +21°C° 0 mm 6 m/s 757 mmHg 79%
    04:00 +20°C° 0 mm 7 m/s 757 mmHg 81%
    05:00 +21°C° 0 mm 6 m/s 758 mmHg 76%
    06:00 +22°C° 0 mm 6 m/s 758 mmHg 71%
    07:00 +23°C° 0 mm 5 m/s 759 mmHg 67%
    08:00 +26°C° 0 mm 5 m/s 759 mmHg 60%
    09:00 +28°C° 0 mm 5 m/s 759 mmHg 53%
    10:00 +29°C° 0 mm 4 m/s 758 mmHg 47%
    11:00 +29°C° 0 mm 5 m/s 758 mmHg 48%
    12:00 +29°C° 0 mm 5 m/s 757 mmHg 49%
    13:00 +29°C° 0 mm 5 m/s 757 mmHg 49%
    14:00 +28°C° 0.3 mm 4 m/s 757 mmHg 55%
    15:00 +27°C° 0.3 mm 4 m/s 757 mmHg 61%
    16:00 +26°C° 0.3 mm 3 m/s 757 mmHg 67%
    17:00 +25°C° 1.3 mm 3 m/s 757 mmHg 72%
    18:00 +24°C° 1.3 mm 2 m/s 758 mmHg 76%
    19:00 +23°C° 1.3 mm 2 m/s 759 mmHg 81%
    20:00 +22°C° 0.3 mm 3 m/s 759 mmHg 83%
    21:00 +21°C° 0.3 mm 3 m/s 759 mmHg 85%
    22:00 +21°C° 0.3 mm 4 m/s 759 mmHg 87%
    23:00 +20°C° 0.1 mm 4 m/s 759 mmHg 88%

    23 Novembro, Sábado

    Tempo Temperatura Precipitação Vento Pressão Humidade
    00:00 +20°C° 0.1 mm 3 m/s 759 mmHg 89%
    01:00 +20°C° 0.1 mm 3 m/s 759 mmHg 91%
    02:00 +20°C° 0.1 mm 3 m/s 758 mmHg 90%
    03:00 +20°C° 0.1 mm 3 m/s 758 mmHg 90%
    04:00 +20°C° 0.1 mm 3 m/s 757 mmHg 90%
    05:00 +20°C° 0 mm 3 m/s 758 mmHg 88%
    06:00 +20°C° 0 mm 4 m/s 758 mmHg 87%
    07:00 +21°C° 0 mm 4 m/s 758 mmHg 86%
    08:00 +23°C° 0 mm 4 m/s 758 mmHg 76%
    09:00 +26°C° 0 mm 3 m/s 758 mmHg 67%
    10:00 +28°C° 0 mm 3 m/s 758 mmHg 57%
    11:00 +28°C° 0.1 mm 3 m/s 757 mmHg 56%
    12:00 +29°C° 0.1 mm 4 m/s 757 mmHg 55%
    13:00 +29°C° 0.1 mm 4 m/s 756 mmHg 54%
    14:00 +27°C° 1.3 mm 5 m/s 756 mmHg 63%
    15:00 +25°C° 1.3 mm 5 m/s 755 mmHg 73%
    16:00 +22°C° 1.3 mm 5 m/s 755 mmHg 83%
    17:00 +22°C° 1.7 mm 4 m/s 756 mmHg 85%
    18:00 +21°C° 1.7 mm 3 m/s 757 mmHg 87%
    19:00 +21°C° 1.7 mm 2 m/s 757 mmHg 90%
    20:00 +21°C° 1.2 mm 3 m/s 758 mmHg 91%
    21:00 +21°C° 1.2 mm 3 m/s 758 mmHg 91%
    22:00 +21°C° 1.2 mm 4 m/s 759 mmHg 92%
    23:00 +20°C° 0.6 mm 4 m/s 758 mmHg 92%
    Mostrar mais